Location: Brantley
(31.5822°N, 86.2569°W)
Time: 14:27:50
(UTC+00:00)

Courier 1B - Pass Details

Date: 21 February 2026
Orbit: 962 x 1208 km, 28.3° (Epoch: 11 March)

Event Time Altitude Azimuth Distance (km) Brightness Sun altitude
Rises 00:14:15 0° 245° (WSW) 3,777 12.2 -8.8°
Reaches altitude 10° 00:16:57 10° 240° (WSW) 2,861 11.2 -9.4°
Maximum altitude 00:23:45 54° 165° (SSE) 1,316 8.1 -10.8°
Enters shadow 00:29:53 15° 93° (E) 2,673 9.1 -12.1°
Drops below altitude 10° 00:31:01 10° 91° (E) 3,043 - -12.4°
Sets 00:33:58 0° 87° (E) 4,036 - -13.0°
